• Join FlightAware (Why Join?)
  • Login
  • US Flag 
08:22PM EDT


 

Airport Tracker/Info


-or-


 

Live Flight TrackerFlight Track Log ✈ UAL202 ✈ 18-Nov-2013 ✈ KDCA - KDEN

Flight Track Log - Related Links

Times and Time Zones

All times are in EST time to prevent confusion due to time zone crossing. See the UAL202 flight status page for this flight to view local times or setup timezone preferences in your user account.

Time Position Orientation Groundspeed Altitude Reporting Facility
EST Latitude Longitude Course Direction KTS MPH feet Rate Location/Type
05:29PM 38.8833 -77.0667 270° West 184 212 2,100  Level Potomac TRACON
05:30PM 38.9333 -77.1167 322° Northwest 225 259 4,800 2,940 Climbing Potomac TRACON
05:31PM 38.9128 -77.4254 270° West  Level Estimated
05:31PM 38.9833 -77.1833 314° West 247 284 8,000  Level Potomac TRACON
05:32PM 38.9327 -77.5548 274° West  Level Estimated
05:32PM 38.9833 -77.2667 270° West 247 284 10,800  Level Potomac TRACON
05:33PM 38.9373 -77.6866 273° West  Level FlightAware Approximate
05:33PM 38.9667 -77.3833 260° West 300 345 13,200  Level Potomac TRACON
05:34PM 38.9571 -77.8161 270° West  Level Estimated
05:34PM 38.9667 -77.4667 270° West 263 303 16,400  Level Potomac TRACON
05:35PM 38.9500 -77.5667 258° West 261 300 17,000 240 Climbing Potomac TRACON
05:36PM 38.9436 -77.6628 265° West 248 285 17,000  Level Washington Center
05:37PM 38.9442 -77.7456 271° West 253 291 17,000  Level Washington Center
05:38PM 38.9506 -77.8472 275° West 253 291 17,000  Level Washington Center
05:39PM 38.9508 -77.9458 270° West 274 315 17,000 1,320 Level Washington Center
05:40PM 38.9547 -78.0608 273° West 310 357 19,700 2,280 Climbing Washington Center
05:41PM 38.9586 -78.1783 272° West 320 368 21,700 2,100 Climbing Washington Center
05:42PM 38.9622 -78.2986 272° West 332 382 23,900 1,920 Climbing Washington Center
05:43PM 38.9675 -78.4244 273° West 342 394 25,600 1,500 Climbing Washington Center
05:44PM 38.9708 -78.5528 272° West 355 409 27,000 1,200 Climbing Washington Center
05:45PM 38.9758 -78.6864 273° West 367 422 28,000 1,140 Climbing Washington Center
05:46PM 38.9781 -78.8358 271° West 381 438 29,300 1,980 Climbing Washington Center
05:47PM 38.9811 -78.9564 272° West 381 438 32,000 1,320 Climbing Washington Center
05:48PM 38.9858 -79.0794 273° West 369 425 32,000  Level Washington Center
05:49PM 38.9883 -79.2078 271° West 364 419 32,000  Level Washington Center
05:50PM 38.9906 -79.3386 271° West 364 419 32,000  Level Washington Center
05:51PM 38.9969 -79.4697 274° West 364 419 32,000  Level Washington Center
05:52PM 39.0003 -79.6197 272° West 375 432 32,000  Level Washington Center
05:53PM 39.0019 -79.7533 271° West 381 438 32,000  Level Washington Center
05:54PM 39.0042 -79.8711 271° West 381 438 32,000  Level Washington Center
05:55PM 39.0033 -79.9736 269° West 377 434 32,000  Level Indianapolis Center
05:56PM 39.0053 -80.1236 271° West 377 434 32,000  Level Indianapolis Center
05:57PM 39.0086 -80.2581 272° West 376 433 32,000  Level Indianapolis Center
05:58PM 39.0103 -80.3936 271° West 379 436 32,000  Level Indianapolis Center
05:59PM 39.0381 -80.5225 286° West 381 438 32,000  Level Indianapolis Center
06:00PM 39.0917 -80.6425 300° West 385 443 32,000  Level Indianapolis Center
06:01PM 39.1539 -80.7881 299° West 387 445 32,000  Level Indianapolis Center
06:02PM 39.1986 -80.9119 295° West 384 442 32,000  Level Indianapolis Center
06:03PM 39.2444 -81.0353 296° West 383 441 32,000  Level Indianapolis Center
06:04PM 39.2906 -81.1606 295° West 386 444 32,000  Level Indianapolis Center
06:05PM 39.3358 -81.2844 295° West 384 442 32,000  Level Indianapolis Center
06:06PM 39.3797 -81.4083 295° West 382 440 32,000  Level Indianapolis Center
06:07PM 39.4344 -81.5561 296° West 381 438 32,000  Level Indianapolis Center
06:08PM 39.4792 -81.6803 295° West 381 438 32,000  Level Indianapolis Center
06:09PM 39.5231 -81.8053 295° West 382 440 32,000  Level Indianapolis Center
06:10PM 39.5675 -81.9322 294° West 386 444 32,000  Level Indianapolis Center
06:11PM 39.6111 -82.0558 295° West 382 440 32,000  Level Indianapolis Center
06:12PM 39.6544 -82.1794 295° West 378 435 32,000  Level Indianapolis Center
06:13PM 39.7058 -82.3275 294° West 377 434 32,000  Level Indianapolis Center
06:14PM 39.7497 -82.4517 295° West 377 434 32,000  Level Indianapolis Center
06:15PM 39.7919 -82.5756 294° West 376 433 32,000  Level Indianapolis Center
06:16PM 39.8350 -82.6983 295° West 376 433 32,000  Level Indianapolis Center
06:17PM 39.8778 -82.8219 294° West 376 433 32,000  Level Indianapolis Center
06:18PM 39.9203 -82.9456 294° West 377 434 32,000  Level Indianapolis Center
06:19PM 39.9706 -83.0939 294° West 376 433 32,000  Level Indianapolis Center
06:20PM 40.0131 -83.2164 294° West 375 432 32,000  Level Indianapolis Center
06:22PM 40.0536 -83.3386 293° West 373 429 32,000  Level Indianapolis Center
06:23PM 40.0953 -83.4597 294° West 372 428 32,000  Level Indianapolis Center
06:24PM 40.1444 -83.6061 294° West 372 428 32,000  Level Indianapolis Center
06:25PM 40.1844 -83.7286 293° West 370 426 32,000  Level Indianapolis Center
06:26PM 40.2250 -83.8500 294° West 368 423 32,000  Level Indianapolis Center
06:27PM 40.2653 -83.9722 293° West 367 422 32,000  Level Indianapolis Center
06:28PM 40.2947 -84.0986 287° West 366 421 32,000  Level Indianapolis Center
06:29PM 40.3092 -84.2553 277° West 363 418 32,000  Level Indianapolis Center
06:30PM 40.3211 -84.3856 277° West 363 418 32,000  Level Indianapolis Center
06:31PM 40.3342 -84.5164 277° West 363 418 32,000  Level Indianapolis Center
06:32PM 40.3469 -84.6461 277° West 362 417 32,000  Level Indianapolis Center
06:33PM 40.3600 -84.7781 277° West 365 420 32,000  Level Indianapolis Center
06:34PM 40.3717 -84.9186 276° West 365 420 32,000  Level Indianapolis Center
06:35PM 40.3847 -85.0497 277° West 365 420 32,000  Level Indianapolis Center
06:36PM 40.3964 -85.1794 277° West 365 420 32,000  Level Chicago Center
06:37PM 40.4086 -85.3097 277° West 364 419 32,000  Level Chicago Center
06:38PM 40.4208 -85.4406 277° West 363 418 32,000  Level Chicago Center
06:39PM 40.4328 -85.5708 277° West 363 418 32,000  Level Chicago Center
06:40PM 40.4458 -85.7289 276° West 366 421 32,000  Level Chicago Center
06:41PM 40.4569 -85.8606 276° West 367 422 32,000  Level Chicago Center
06:42PM 40.4692 -85.9925 277° West 367 422 32,000  Level Chicago Center
06:43PM 40.4797 -86.1247 276° West 368 423 32,000  Level Chicago Center
06:44PM 40.4906 -86.2575 276° West 369 425 32,000  Level Chicago Center
06:45PM 40.5031 -86.4169 276° West 369 425 32,000  Level Chicago Center
06:46PM 40.5139 -86.5494 276° West 369 425 32,000  Level Chicago Center
06:47PM 40.5250 -86.6792 276° West 362 417 32,000  Level Chicago Center
06:48PM 40.5364 -86.8111 277° West 364 419 32,000  Level Chicago Center
06:49PM 40.5469 -86.9444 276° West 368 423 32,000  Level Chicago Center
06:50PM 40.5619 -87.1031 277° West 370 426 32,000  Level Chicago Center
06:51PM 40.5956 -87.2306 289° West 370 426 32,000  Level Chicago Center
06:52PM 40.6264 -87.3600 287° West 371 427 32,000  Level Chicago Center
06:53PM 40.6392 -87.4978 277° West 377 434 32,000  Level Chicago Center
06:54PM 40.6522 -87.6339 277° West 376 433 32,000  Level Chicago Center
06:56PM 40.6675 -87.7978 277° West 376 433 32,000  Level Chicago Center
06:57PM 40.6781 -87.9311 276° West 371 427 32,000  Level Chicago Center
06:58PM 40.6886 -88.0678 276° West 373 429 32,000  Level Chicago Center
06:59PM 40.7008 -88.2028 277° West 372 428 32,000  Level Chicago Center
07:00PM 40.7114 -88.3403 276° West 377 434 32,000  Level Chicago Center
07:01PM 40.7208 -88.4772 275° West 376 433 32,000  Level Chicago Center
07:02PM 40.7342 -88.6411 276° West 375 432 32,000  Level Chicago Center
07:03PM 40.7450 -88.7792 276° West 379 436 32,000  Level Chicago Center
07:04PM 40.7536 -88.9078 275° West 383 441 32,000  Level Chicago Center
07:05PM 40.7633 -89.0472 275° West 383 441 32,000  Level Chicago Center
07:06PM 40.7761 -89.2136 276° West 381 438 32,000  Level Chicago Center
07:07PM 40.7853 -89.3508 275° West 379 436 32,000  Level Chicago Center
07:08PM 40.7947 -89.4886 275° West 380 437 32,000  Level Chicago Center
07:09PM 40.8047 -89.6356 275° West 378 435 32,000  Level Chicago Center
07:10PM 40.8150 -89.7717 276° West 376 433 32,000  Level Chicago Center
07:11PM 40.8244 -89.9092 275° West 376 433 32,000  Level Chicago Center
07:12PM 40.8314 -90.0461 274° West 376 433 32,000  Level Chicago Center
07:13PM 40.8431 -90.2117 275° West 377 434 32,000  Level Chicago Center
07:14PM 40.8508 -90.3336 275° West 381 438 32,000  Level Chicago Center
07:15PM 40.8617 -90.5025 275° West 384 442 32,000  Level Chicago Center
07:16PM 40.8694 -90.6428 274° West 385 443 32,000  Level Chicago Center
07:17PM 40.8767 -90.7831 274° West 385 443 32,000  Level Chicago Center
07:18PM 40.8853 -90.9258 275° West 389 448 32,000  Level Chicago Center
07:19PM 40.8936 -91.0664 275° West 386 444 32,000  Level Chicago Center
07:20PM 40.9011 -91.2072 274° West 386 444 32,000  Level Chicago Center
07:21PM 40.9097 -91.3689 274° West 387 445 32,000  Level Chicago Center
07:22PM 40.9172 -91.5094 274° West 386 444 32,000  Level Chicago Center
07:23PM 40.9247 -91.6503 274° West 388 447 32,000  Level Chicago Center
07:24PM 40.9314 -91.7894 274° West 386 444 32,000  Level Chicago Center
07:26PM 40.9386 -91.9583 273° West 387 445 32,000  Level Chicago Center
07:27PM 40.9453 -92.0981 274° West 386 444 32,000  Level Chicago Center
07:28PM 40.9519 -92.2389 274° West 387 445 32,000  Level Chicago Center
07:29PM 40.9583 -92.3797 273° West 388 447 32,000  Level Chicago Center
07:30PM 40.9650 -92.5475 273° West 387 445 32,000  Level Chicago Center
07:31PM 40.9719 -92.6881 274° West 389 448 32,000  Level Chicago Center
07:32PM 40.9767 -92.8292 273° West 389 448 32,000  Level Chicago Center
07:33PM 40.9819 -92.9717 273° West 392 451 32,000  Level Chicago Center
07:34PM 40.9892 -93.1136 274° West 392 451 32,000 480 Level Chicago Center
07:35PM 40.9961 -93.2828 273° West 389 448 33,100 1,200 Climbing Minneapolis Center
07:36PM 41.0008 -93.4258 273° West 393 452 34,600 1,380 Climbing Minneapolis Center
07:37PM 41.0056 -93.5667 273° West 390 449 36,000 660 Climbing Minneapolis Center
07:38PM 41.0092 -93.7022 272° West 379 436 36,000  Level Minneapolis Center
07:39PM 41.0125 -93.8383 272° West 374 430 36,000  Level Minneapolis Center
07:40PM 41.0175 -94.0017 272° West 375 432 36,000  Level Minneapolis Center
07:41PM 41.0206 -94.1406 272° West 378 435 36,000  Level Minneapolis Center
07:42PM 41.0239 -94.2786 272° West 380 437 36,000  Level Minneapolis Center
07:43PM 41.0278 -94.4169 272° West 379 436 36,000  Level Minneapolis Center
07:44PM 41.0311 -94.5742 272° West 379 436 36,000  Level Minneapolis Center
07:45PM 41.0347 -94.7136 272° West 378 435 36,000  Level Minneapolis Center
07:46PM 41.0378 -94.8531 272° West 378 435 36,000  Level Minneapolis Center
07:47PM 41.0403 -94.9919 271° West 377 434 36,000  Level Minneapolis Center
07:48PM 41.0442 -95.1303 272° West 376 433 36,000  Level Minneapolis Center
07:49PM 41.0458 -95.2692 271° West 376 433 36,000  Level Minneapolis Center
07:50PM 41.0492 -95.4086 272° West 377 434 36,000  Level Minneapolis Center
07:51PM 41.0514 -95.5744 271° West 375 432 36,000  Level Minneapolis Center
07:52PM 41.0533 -95.7153 271° West 379 436 36,000  Level Minneapolis Center
07:53PM 41.0550 -95.8564 271° West 380 437 36,000  Level Minneapolis Center
07:54PM 41.0569 -95.9981 271° West 380 437 36,000  Level Minneapolis Center
07:55PM 41.0594 -96.1400 271° West 382 440 36,000  Level Minneapolis Center
07:56PM 41.0611 -96.2814 271° West 382 440 36,000  Level Minneapolis Center
07:57PM 41.0617 -96.4239 270° West 383 441 36,000  Level Minneapolis Center
07:59PM 41.0633 -96.5664 271° West 384 442 36,000  Level Minneapolis Center
08:00PM 41.0644 -96.7075 271° West 384 442 36,000  Level Minneapolis Center
08:01PM 41.0636 -96.8492 270° West 384 442 36,000  Level Minneapolis Center
08:02PM 41.0642 -97.0192 270° West 385 443 36,000  Level Minneapolis Center
08:03PM 41.0644 -97.1603 270° West 383 441 36,000  Level Minneapolis Center
08:04PM 41.0656 -97.3019 271° West 385 443 36,000  Level Minneapolis Center
08:05PM 41.0656 -97.4350 270° West 385 443 36,000  Level Minneapolis Center
08:06PM 41.0661 -97.5761 270° West 385 443 36,000  Level Minneapolis Center
08:07PM 41.0661 -97.7478 270° West 387 445 36,000  Level Minneapolis Center
08:08PM 41.0647 -97.8911 269° West 389 448 36,000  Level Minneapolis Center
08:09PM 41.0647 -98.0342 270° West 388 447 36,000  Level Minneapolis Center
08:10PM 41.0653 -98.1775 270° West 389 448 36,000  Level Minneapolis Center
08:11PM 41.0636 -98.3211 269° West 388 447 36,000  Level Minneapolis Center
08:12PM 41.0486 -98.4711 262° West 389 448 36,000  Level Minneapolis Center
08:13PM 41.0311 -98.6147 261° West 392 451 36,000  Level Minneapolis Center
08:14PM 41.0136 -98.7575 261° West 394 453 36,000  Level Minneapolis Center
08:15PM 40.9964 -98.9006 261° West 395 455 36,000  Level Minneapolis Center
08:16PM 40.9822 -99.0403 262° West 387 445 36,000  Level Minneapolis Center
08:17PM 40.9667 -99.1794 262° West 377 434 36,000  Level Denver Center
08:17PM 40.9667 -99.1794 262° West 376 433 36,000  Level Minneapolis Center
08:18PM 40.9517 -99.3156 262° West 375 432 36,000  Level Denver Center
08:19PM 40.9358 -99.4511 261° West 373 429 36,000  Level Denver Center
08:20PM 40.9167 -99.6153 261° West 375 432 36,000  Level Denver Center
08:21PM 40.9000 -99.7511 261° West 375 432 36,000  Level Denver Center
08:22PM 40.8842 -99.8814 261° West 376 433 36,000  Level Denver Center
08:23PM 40.8611 -100.0378 259° West 385 443 36,000  Level Denver Center
08:24PM 40.8389 -100.1761 258° West 399 459 36,000  Level Denver Center
08:25PM 40.8142 -100.3386 259° West 405 466 36,000  Level Denver Center
08:26PM 40.7928 -100.4769 259° West 402 463 36,000  Level Denver Center
08:27PM 40.7700 -100.6156 258° West 401 461 36,000  Level Denver Center
08:28PM 40.7414 -100.7831 257° West 407 468 36,000  Level Denver Center
08:29PM 40.7192 -100.9250 258° West 407 468 36,000  Level Denver Center
08:30PM 40.6967 -101.0647 258° West 407 468 36,000  Level Denver Center
08:31PM 40.6703 -101.2267 258° West 406 467 36,000  Level Denver Center
08:32PM 40.6472 -101.3672 258° West 409 471 36,000  Level Denver Center
08:33PM 40.6194 -101.5303 257° West 410 472 36,000  Level Denver Center
08:34PM 40.5964 -101.6706 258° West 411 473 36,000  Level Denver Center
08:35PM 40.5689 -101.8344 258° West 411 473 36,000  Level Denver Center
08:37PM 40.5453 -101.9731 257° West 406 467 36,000 -180 Level Denver Center
08:38PM 40.5219 -102.1050 257° West 388 447 35,700 -900 Descending Denver Center
08:39PM 40.4950 -102.2528 257° West 375 432 34,200 -840 Descending Denver Center
08:40PM 40.4725 -102.3778 257° West 368 423 34,000 -120 Descending Denver Center
08:41PM 40.4472 -102.5236 257° West 368 423 34,000  Level Denver Center
08:42PM 40.4247 -102.6481 257° West 367 422 34,000  Level Denver Center
08:43PM 40.3992 -102.7839 256° West 370 426 34,000 -300 Level Denver Center
08:44PM 40.3758 -102.9158 257° West 372 428 33,400 -1,260 Descending Denver Center
08:45PM 40.3528 -103.0439 257° West 366 421 31,500 -1,860 Descending Denver Center
08:46PM 40.3300 -103.1703 257° West 357 411 29,600 -1,860 Descending Denver Center
08:47PM 40.3081 -103.2947 257° West 353 406 27,800 -2,040 Descending Denver Center
08:48PM 40.2806 -103.4411 256° West 347 399 25,500 -2,040 Descending Denver Center
08:49PM 40.2581 -103.5608 256° West 341 392 23,600 -1,860 Descending Denver Center
08:50PM 40.2350 -103.6775 256° West 333 383 21,800 -1,860 Descending Denver Center
08:51PM 40.2136 -103.7972 257° West 332 382 19,800 -1,860 Descending Denver Center
08:52PM 40.2064 -103.9203 266° West 310 357 18,000 -1,740 Descending Denver Center
08:53PM 40.2192 -104.0325 279° West 316 364 16,300 -1,620 Descending Denver Center
08:54PM 40.2283 -104.1419 276° West 306 352 14,700 -1,620 Descending Denver Center
08:55PM 40.2394 -104.2589 277° West 301 346 13,000 -1,320 Descending Denver Center
08:56PM 40.2483 -104.3619 276° West 291 335 12,100 -1,020 Descending Denver Center
08:57PM 40.2550 -104.4608 275° West 260 299 11,000 -1,080 Descending Denver Center
08:58PM 40.2394 -104.5467 257° West 255 293 10,000 -540 Descending Denver Center
08:59PM 40.1817 -104.5864 208° Southwest 235 270 9,900 -60 Descending Denver Center
09:00PM 40.1317 -104.6239 210° Southwest 193 222 9,900 -300 Level Denver Center
09:01PM 40.0842 -104.6561 207° Southwest 192 221 9,400 -960 Descending Denver Center
09:02PM 40.0317 -104.6789 198° South 187 215 8,000 -1,140 Descending Denver Center
09:03PM 39.9858 -104.6853 186° South 167 192 7,100 -840 Descending Denver Center
09:04PM 39.9489 -104.6858 181° South 136 157 6,400 -780 Descending Denver Center
09:05PM 39.9083 -104.6864 181° South 134 154 5,600 -540 Descending Denver Center
09:06PM 39.8775 -104.6869 181° South 129 148 5,400 -240 Descending Denver Center